Zurück zum Katalog

YAOGAN 45

AktivMilitärMEO
NORAD 65563·PAYLOAD·🇨🇳 China

Gestartet Sep 8, 2025 von Wenchang Space Launch Site

Loading…

Nächste Überflüge (nächste 24 Stunden)

TLE

AktuellSource: Space-Track

Epoche: Sep 14, 2026, 05:49 UTC

1 65563U 25202A   26257.24265678 -.00000014  00000-0  00000-0 0  9994
2 65563  19.9302 162.6288 0007617 349.7136  10.2995  5.31204400 16820

Verfolge YAOGAN 45 in Echtzeit mit AllMySat

Download on the App Store